JCSAT-3A

Last updated on Sun Jun 21 2026 00:03:04 GMT+0000 (Coordinated Universal Time)

1 29272U 06033A 26171.45192605 -.00000349 00000+0 00000+0 0 9998 2 29272 0.0093 338.5051 0002344 124.5781 96.2587 1.00270195 47779
UTC large
Height (km)
Speed (km/s)
/
Latitude / Longitude
Inclination (degrees)
Orbital Period (minutes)
Azimuth
Elevation
Range (km)
Doppler Factor

Next 0 passes for location: London (51.5072 / 0.1276)

No passes found over London.
JCSAT-3A